Tiempo cada hora Munyakovo

Hoy, 28 Octubre, Miércoles

Tiempo Temperatura Precipitaciones Viento Presión Humedad
00:00 +4°C° 0 mm 4 mps 761 mmHg 74%
01:00 +3°C° 0 mm 4 mps 761 mmHg 74%
02:00 +3°C° 0 mm 4 mps 761 mmHg 74%
03:00 +1°C° 0 mm 4 mps 761 mmHg 74%
04:00 +1°C° 0 mm 4 mps 761 mmHg 75%
05:00 +1°C° 0 mm 4 mps 760 mmHg 77%
06:00 +1°C° 0 mm 4 mps 760 mmHg 78%
07:00 +1°C° 0 mm 4 mps 760 mmHg 76%
08:00 +1°C° 0 mm 5 mps 760 mmHg 75%
09:00 +2°C° 0 mm 5 mps 760 mmHg 73%
10:00 +3°C° 0 mm 5 mps 760 mmHg 69%
11:00 +5°C° 0 mm 5 mps 760 mmHg 66%
12:00 +6°C° 0 mm 5 mps 760 mmHg 62%
13:00 +6°C° 0 mm 5 mps 760 mmHg 61%
14:00 +7°C° 0 mm 5 mps 759 mmHg 60%
15:00 +7°C° 0 mm 5 mps 759 mmHg 59%
16:00 +6°C° 0 mm 4 mps 759 mmHg 63%
17:00 +5°C° 0 mm 4 mps 759 mmHg 67%
18:00 +4°C° 0 mm 4 mps 759 mmHg 71%
19:00 +4°C° 0 mm 4 mps 759 mmHg 72%
20:00 +3°C° 0 mm 4 mps 759 mmHg 72%
21:00 +3°C° 0 mm 4 mps 759 mmHg 73%
22:00 +3°C° 0 mm 3 mps 759 mmHg 72%
23:00 +3°C° 0 mm 3 mps 759 mmHg 72%

Mañana, 29 Octubre, Jueves

Tiempo Temperatura Precipitaciones Viento Presión Humedad
00:00 +2°C° 0 mm 3 mps 759 mmHg 71%
01:00 +2°C° 0 mm 3 mps 759 mmHg 70%
02:00 +2°C° 0 mm 3 mps 759 mmHg 70%
03:00 +1°C° 0 mm 3 mps 759 mmHg 69%
04:00 +1°C° 0 mm 3 mps 759 mmHg 70%
05:00 +1°C° 0 mm 3 mps 758 mmHg 71%
06:00 +1°C° 0 mm 3 mps 758 mmHg 72%
07:00 +1°C° 0 mm 3 mps 758 mmHg 70%
08:00 +2°C° 0 mm 3 mps 758 mmHg 69%
09:00 +1°C° 0 mm 4 mps 758 mmHg 67%
10:00 +4°C° 0 mm 4 mps 758 mmHg 63%
11:00 +5°C° 0 mm 4 mps 758 mmHg 60%
12:00 +6°C° 0 mm 4 mps 758 mmHg 56%
13:00 +7°C° 0 mm 3 mps 757 mmHg 55%
14:00 +8°C° 0 mm 3 mps 757 mmHg 55%
15:00 +8°C° 0 mm 3 mps 756 mmHg 54%
16:00 +7°C° 0 mm 3 mps 756 mmHg 58%
17:00 +5°C° 0 mm 3 mps 756 mmHg 62%
18:00 +4°C° 0 mm 3 mps 756 mmHg 66%
19:00 +3°C° 0 mm 3 mps 755 mmHg 67%
20:00 +3°C° 0 mm 3 mps 755 mmHg 67%
21:00 +3°C° 0 mm 3 mps 755 mmHg 67%
22:00 +4°C° 0 mm 3 mps 755 mmHg 66%
23:00 +4°C° 0 mm 3 mps 755 mmHg 64%

Pasado mañana, 30 Octubre, Viernes

Tiempo Temperatura Precipitaciones Viento Presión Humedad
00:00 +5°C° 0 mm 3 mps 754 mmHg 63%
01:00 +5°C° 0 mm 3 mps 754 mmHg 63%
02:00 +5°C° 0 mm 3 mps 753 mmHg 63%
03:00 +5°C° 0 mm 3 mps 753 mmHg 63%
04:00 +5°C° 0 mm 3 mps 753 mmHg 64%
05:00 +5°C° 0 mm 3 mps 753 mmHg 66%
06:00 +5°C° 0 mm 3 mps 752 mmHg 67%
07:00 +5°C° 0 mm 3 mps 752 mmHg 68%
08:00 +5°C° 0 mm 3 mps 752 mmHg 69%
09:00 +5°C° 0 mm 3 mps 752 mmHg 70%
10:00 +7°C° 0 mm 3 mps 752 mmHg 70%
11:00 +7°C° 0 mm 3 mps 752 mmHg 69%
12:00 +8°C° 0 mm 3 mps 752 mmHg 69%
13:00 +8°C° 0 mm 3 mps 751 mmHg 70%
14:00 +8°C° 0 mm 3 mps 751 mmHg 70%
15:00 +8°C° 0 mm 2 mps 751 mmHg 71%
16:00 +8°C° 0 mm 3 mps 751 mmHg 74%
17:00 +7°C° 0 mm 3 mps 751 mmHg 77%
18:00 +7°C° 0 mm 3 mps 751 mmHg 80%
19:00 +7°C° 0 mm 2 mps 751 mmHg 83%
20:00 +7°C° 0 mm 2 mps 751 mmHg 86%
21:00 +7°C° 0 mm 1 mps 751 mmHg 89%
22:00 +7°C° 0 mm 1 mps 750 mmHg 90%
23:00 +7°C° 0 mm 1 mps 750 mmHg 90%

31 Octubre, Sábado

Tiempo Temperatura Precipitaciones Viento Presión Humedad
00:00 +7°C° 0 mm 1 mps 750 mmHg 91%
01:00 +7°C° 0 mm 1 mps 750 mmHg 91%
02:00 +7°C° 0 mm 1 mps 750 mmHg 91%
03:00 +6°C° 0 mm 0 mps 750 mmHg 91%
04:00 +7°C° 0 mm 1 mps 750 mmHg 91%
05:00 +7°C° 0 mm 1 mps 750 mmHg 91%
06:00 +7°C° 0 mm 1 mps 750 mmHg 91%
07:00 +8°C° 0 mm 1 mps 750 mmHg 90%
08:00 +8°C° 0 mm 1 mps 751 mmHg 89%
09:00 +8°C° 0 mm 1 mps 751 mmHg 88%
10:00 +8°C° 0 mm 1 mps 751 mmHg 86%
11:00 +9°C° 0 mm 1 mps 752 mmHg 85%
12:00 +8°C° 0 mm 2 mps 752 mmHg 83%
13:00 +8°C° 0 mm 2 mps 752 mmHg 83%
14:00 +8°C° 0 mm 2 mps 752 mmHg 83%
15:00 +8°C° 0 mm 2 mps 752 mmHg 83%
16:00 +8°C° 0 mm 2 mps 753 mmHg 85%
17:00 +8°C° 0 mm 2 mps 753 mmHg 86%
18:00 +7°C° 0 mm 2 mps 753 mmHg 88%
19:00 +7°C° 0 mm 2 mps 754 mmHg 89%
20:00 +7°C° 0 mm 2 mps 754 mmHg 90%
21:00 +6°C° 0 mm 2 mps 754 mmHg 91%
22:00 +7°C° 0 mm 2 mps 755 mmHg 90%
23:00 +7°C° 0 mm 2 mps 755 mmHg 89%

1 Noviembre, Domingo

Tiempo Temperatura Precipitaciones Viento Presión Humedad
00:00 +7°C° 0 mm 2 mps 755 mmHg 87%
01:00 +6°C° 0 mm 2 mps 755 mmHg 89%
02:00 +6°C° 0 mm 2 mps 755 mmHg 90%
03:00 +5°C° 0 mm 2 mps 755 mmHg 91%
04:00 +5°C° 0 mm 2 mps 755 mmHg 91%
05:00 +5°C° 0 mm 2 mps 755 mmHg 91%
06:00 +5°C° 0 mm 2 mps 756 mmHg 91%
07:00 +4°C° 0 mm 3 mps 756 mmHg 90%
08:00 +5°C° 0 mm 3 mps 756 mmHg 89%
09:00 +5°C° 0 mm 3 mps 756 mmHg 87%
10:00 +6°C° 0 mm 4 mps 757 mmHg 85%
11:00 +6°C° 0 mm 4 mps 757 mmHg 82%
12:00 +7°C° 0 mm 4 mps 757 mmHg 79%
13:00 +7°C° 0 mm 4 mps 757 mmHg 79%
14:00 +7°C° 0 mm 4 mps 757 mmHg 79%
15:00 +7°C° 0 mm 4 mps 758 mmHg 78%
16:00 +7°C° 0 mm 4 mps 758 mmHg 81%
17:00 +6°C° 0 mm 4 mps 758 mmHg 83%
18:00 +6°C° 0 mm 4 mps 758 mmHg 85%
19:00 +5°C° 0.1 mm 4 mps 759 mmHg 85%
20:00 +5°C° 0.1 mm 4 mps 759 mmHg 85%
21:00 +5°C° 0.1 mm 4 mps 759 mmHg 84%
22:00 +5°C° 0 mm 4 mps 759 mmHg 84%
23:00 +5°C° 0 mm 4 mps 759 mmHg 83%

2 Noviembre, Lunes

Tiempo Temperatura Precipitaciones Viento Presión Humedad
00:00 +5°C° 0 mm 4 mps 760 mmHg 82%
01:00 +5°C° 0 mm 4 mps 760 mmHg 82%
02:00 +5°C° 0 mm 4 mps 760 mmHg 83%
03:00 +5°C° 0 mm 4 mps 760 mmHg 83%
04:00 +4°C° 0 mm 3 mps 760 mmHg 85%
05:00 +4°C° 0 mm 3 mps 760 mmHg 86%
06:00 +4°C° 0 mm 3 mps 760 mmHg 88%
07:00 +4°C° 0 mm 3 mps 760 mmHg 88%
08:00 +5°C° 0 mm 2 mps 761 mmHg 88%
09:00 +5°C° 0 mm 2 mps 761 mmHg 87%
10:00 +6°C° 0 mm 2 mps 761 mmHg 85%
11:00 +7°C° 0 mm 2 mps 761 mmHg 83%
12:00 +8°C° 0 mm 2 mps 761 mmHg 81%
13:00 +8°C° 0 mm 2 mps 761 mmHg 81%
14:00 +8°C° 0 mm 2 mps 761 mmHg 82%
15:00 +8°C° 0 mm 2 mps 761 mmHg 82%
16:00 +8°C° 0 mm 2 mps 761 mmHg 85%
17:00 +7°C° 0 mm 2 mps 761 mmHg 89%
18:00 +6°C° 0 mm 2 mps 761 mmHg 92%
19:00 +6°C° 0 mm 2 mps 761 mmHg 93%
20:00 +6°C° 0 mm 2 mps 761 mmHg 94%
21:00 +6°C° 0 mm 2 mps 762 mmHg 95%
22:00 +6°C° 0 mm 2 mps 762 mmHg 95%
23:00 +7°C° 0 mm 1 mps 762 mmHg 95%
Mostrar más

Necesitamos Su Consentimiento

Meteoprog y nuestros Proveedores de Servicios pueden almacenar y acceder a sus datos personales como cookies, identificadores de dispositivo u otras tecnologías similares de su dispositivo y procesar dichos datos para personalizar contenido y anuncios, además de ofrecer funciones de redes sociales y analizar el tráfico.

  • Almacenar y/o acceder a información en su dispositivo

    Se puede almacenar o acceder a cookies, identificadores de dispositivo u otra información de su dispositivo para los fines anteriormente indicados.

  • Anuncios y contenido personalizados, medición de anuncios y contenido, percepciones del público, y desarrollo de productos

    Los anuncios y el contenido pueden personalizarse en base a su perfil. Se pueden añadir más datos para personalizar mejor los anuncios y contenidos. Se puede medir el rendimiento de los anuncios y contenidos. Se puede obtener la percepción sobre el público que ha visto los anuncios y contenidos. Dichos datos pueden usarse para desarrollar o mejorar la experiencia del usuario, sistemas y software.

Al hacer clic en ‘Estoy De Acuerdo’ usted permitirá el uso de las cookies, identificadores de dispositivo, balizas web u otras tecnologías similares indicadas. Su configuración puede cambiarse desde el navegador de su dispositivo.

Para ciertos fines, los intereses legítimos pueden ser considerados por encima del consentimiento. Puede leer más sobre ello en nuestra Política de Privacidad y Cookies.